| time (UTC) | temp F | wind direction | speed MPH | gust MPH | rain 1hr in | rain 24hr in | rain mn in | humidity % | barometer mb |
| 20260902180429 | 87 | 24 | 2.0 | 7.0 | 0.00 | 0.00 | 0.00 | 34 | 1014.0 |
| 20260902173431 | 88 | 65 | 2.0 | 11.0 | 0.00 | 0.00 | 0.00 | 34 | 1013.8 |
| 20260902171925 | 88 | 47 | 3.0 | 7.0 | 0.00 | 0.00 | 0.00 | 34 | 1013.7 |
| 20260902170424 | 88 | 17 | 2.0 | 9.0 | 0.00 | 0.00 | 0.00 | 33 | 1013.7 |
| 20260902164923 | 89 | 27 | 0.0 | 6.0 | 0.00 | 0.00 | 0.00 | 33 | 1013.7 |
| 20260902163422 | 90 | 23 | 3.0 | 10.0 | 0.00 | 0.00 | 0.00 | 33 | 1013.7 |
| 20260902161922 | 90 | 320 | 2.0 | 10.0 | 0.00 | 0.00 | 0.00 | 32 | 1013.8 |
| 20260902160420 | 91 | 0 | 5.0 | 12.0 | 0.00 | 0.00 | 0.00 | 32 | 1013.9 |
| 20260902154918 | 91 | 320 | 4.0 | 13.0 | 0.00 | 0.00 | 0.00 | 32 | 1013.8 |
| 20260902153418 | 91 | 24 | 4.0 | 14.0 | 0.00 | 0.00 | 0.00 | 31 | 1013.8 |
| 20260902151917 | 92 | 300 | 3.0 | 12.0 | 0.00 | 0.00 | 0.00 | 31 | 1013.8 |
| 20260902150416 | 92 | 47 | 2.0 | 11.0 | 0.00 | 0.00 | 0.00 | 30 | 1013.8 |
| 20260902144912 | 92 | 7 | 4.0 | 14.0 | 0.00 | 0.00 | 0.00 | 30 | 1013.9 |
| 20260902143410 | 92 | 11 | 5.0 | 13.0 | 0.00 | 0.00 | 0.00 | 30 | 1014.1 |
| 20260902141909 | 93 | 25 | 7.0 | 13.0 | 0.00 | 0.00 | 0.00 | 29 | 1014.1 |
| 20260902140408 | 93 | 334 | 5.0 | 16.0 | 0.00 | 0.00 | 0.00 | 29 | 1014.2 |
| 20260902134909 | 93 | 1 | 6.0 | 16.0 | 0.00 | 0.00 | 0.00 | 28 | 1014.2 |
| 20260902131904 | 94 | 343 | 6.0 | 16.0 | 0.00 | 0.00 | 0.00 | 28 | 1014.4 |
| 20260902130405 | 95 | 1 | 6.0 | 16.0 | 0.00 | 0.00 | 0.00 | 27 | 1014.5 |
| 20260902123403 | 95 | 16 | 7.0 | 18.0 | 0.00 | 0.00 | 0.00 | 27 | 1014.6 |
| 20260902121902 | 95 | 341 | 9.0 | 18.0 | 0.00 | 0.00 | 0.00 | 27 | 1014.6 |
| 20260902120401 | 94 | 54 | 5.0 | 19.0 | 0.00 | 0.00 | 0.00 | 27 | 1014.8 |
| 20260902114909 | 95 | 8 | 4.0 | 14.0 | 0.00 | 0.00 | 0.00 | 27 | 1014.8 |
| 20260902110401 | 94 | 8 | 5.0 | 15.0 | 0.00 | 0.00 | 0.00 | 25 | 1015.2 |
| 20260902104900 | 94 | 286 | 3.0 | 13.0 | 0.00 | 0.00 | 0.00 | 24 | 1015.2 |
| 20260902101901 | 94 | 21 | 7.0 | 15.0 | 0.00 | 0.00 | 0.00 | 25 | 1015.4 |
| 20260902100403 | 94 | 59 | 4.0 | 18.0 | 0.00 | 0.00 | 0.00 | 25 | 1015.5 |
| 20260902093401 | 93 | 1 | 4.0 | 21.0 | 0.00 | 0.00 | 0.00 | 27 | 1015.5 |
| 20260902091903 | 93 | 18 | 6.0 | 16.0 | 0.00 | 0.00 | 0.00 | 28 | 1015.5 |
| 20260902084901 | 92 | 103 | 5.0 | 18.0 | 0.00 | 0.00 | 0.00 | 28 | 1015.5 |
| 20260902083402 | 92 | 345 | 6.0 | 14.0 | 0.00 | 0.00 | 0.00 | 29 | 1015.6 |
| 20260902081901 | 91 | 41 | 6.0 | 15.0 | 0.00 | 0.00 | 0.00 | 30 | 1015.5 |
| 20260902080400 | 91 | 313 | 7.0 | 14.0 | 0.00 | 0.00 | 0.00 | 31 | 1015.5 |
| 20260902074901 | 90 | 14 | 5.0 | 12.0 | 0.00 | 0.00 | 0.00 | 32 | 1015.6 |
| 20260902073401 | 89 | 1 | 6.0 | 14.0 | 0.00 | 0.00 | 0.00 | 36 | 1015.5 |
| 20260902071900 | 88 | 340 | 5.0 | 13.0 | 0.00 | 0.00 | 0.00 | 36 | 1015.5 |
| 20260902070401 | 87 | 1 | 6.0 | 14.0 | 0.00 | 0.00 | 0.00 | 37 | 1015.4 |
| 20260902064906 | 87 | 1 | 5.0 | 10.0 | 0.00 | 0.00 | 0.00 | 37 | 1015.3 |
| 20260902063401 | 86 | 48 | 6.0 | 13.0 | 0.00 | 0.00 | 0.00 | 38 | 1015.2 |
| 20260902061900 | 86 | 0 | 3.0 | 13.0 | 0.00 | 0.00 | 0.00 | 39 | 1015.3 |
| 20260902060402 | 85 | 343 | 4.0 | 12.0 | 0.00 | 0.00 | 0.00 | 40 | 1015.3 |
| 20260902054906 | 85 | 358 | 4.0 | 9.0 | 0.00 | 0.00 | 0.00 | 41 | 1015.2 |
| 20260902053401 | 84 | 0 | 5.0 | 12.0 | 0.00 | 0.00 | 0.00 | 42 | 1015.2 |
| 20260902051903 | 84 | 337 | 3.0 | 11.0 | 0.00 | 0.00 | 0.00 | 42 | 1015.3 |
| 20260902050401 | 83 | 114 | 4.0 | 9.0 | 0.00 | 0.00 | 0.00 | 43 | 1015.2 |
| 20260902044900 | 82 | 155 | 1.0 | 5.0 | 0.00 | 0.00 | 0.00 | 44 | 1015.3 |
| 20260902043402 | 82 | 145 | 0.0 | 5.0 | 0.00 | 0.00 | 0.00 | 45 | 1015.2 |
| 20260902041900 | 82 | 123 | 0.0 | 2.0 | 0.00 | 0.00 | 0.00 | 45 | 1015.2 |
| 20260902040401 | 82 | 8 | 1.0 | 6.0 | 0.00 | 0.00 | 0.00 | 45 | 1015.2 |
| 20260902034902 | 82 | 306 | 2.0 | 5.0 | 0.00 | 0.00 | 0.00 | 42 | 1015.1 |
| 20260902033401 | 82 | 330 | 2.0 | 7.0 | 0.00 | 0.00 | 0.00 | 43 | 1014.9 |
| 20260902031901 | 82 | 343 | 6.0 | 13.0 | 0.00 | 0.00 | 0.00 | 43 | 1014.8 |
| 20260902030401 | 82 | 333 | 6.0 | 12.0 | 0.00 | 0.00 | 0.00 | 43 | 1014.6 |
| 20260902024901 | 82 | 323 | 6.0 | 13.0 | 0.00 | 0.00 | 0.00 | 43 | 1014.6 |
| 20260902023402 | 83 | 357 | 7.0 | 12.0 | 0.00 | 0.00 | 0.00 | 42 | 1014.6 |
| 20260902021900 | 83 | 329 | 5.0 | 11.0 | 0.00 | 0.00 | 0.00 | 42 | 1014.6 |
| 20260902020404 | 83 | 353 | 7.0 | 15.0 | 0.00 | 0.00 | 0.00 | 42 | 1014.6 |
| 20260902014902 | 83 | 358 | 6.0 | 13.0 | 0.00 | 0.00 | 0.00 | 42 | 1014.7 |
| 20260902013404 | 83 | 0 | 6.0 | 13.0 | 0.00 | 0.00 | 0.00 | 41 | 1014.7 |
| 20260902011900 | 83 | 338 | 6.0 | 13.0 | 0.00 | 0.00 | 0.00 | 42 | 1014.6 |
| 20260902010406 | 84 | 351 | 6.0 | 13.0 | 0.00 | 0.00 | 0.00 | 41 | 1014.6 |
| 20260902004901 | 84 | 337 | 5.0 | 13.0 | 0.00 | 0.00 | 0.00 | 41 | 1014.6 |
| 20260902003404 | 84 | 13 | 6.0 | 13.0 | 0.00 | 0.00 | 0.00 | 42 | 1014.6 |
| 20260902000406 | 84 | 0 | 2.0 | 7.0 | 0.00 | 0.00 | 0.00 | 43 | 1014.5 |
| 20260901234901 | 84 | 39 | 2.0 | 5.0 | 0.00 | 0.00 | 0.00 | 43 | 1014.6 |
| 20260901233409 | 85 | 299 | 2.0 | 9.0 | 0.00 | 0.00 | 0.00 | 44 | 1014.6 |
| 20260901231900 | 84 | 97 | 2.0 | 6.0 | 0.00 | 0.00 | 0.00 | 44 | 1014.7 |
| 20260901230405 | 84 | 1 | 2.0 | 7.0 | 0.00 | 0.00 | 0.00 | 47 | 1014.7 |
| 20260901224907 | 84 | 73 | 2.0 | 5.0 | 0.00 | 0.00 | 0.00 | 47 | 1014.8 |
| 20260901223405 | 84 | 114 | 2.0 | 6.0 | 0.00 | 0.00 | 0.00 | 47 | 1014.8 |
| 20260901221902 | 84 | 44 | 2.0 | 6.0 | 0.00 | 0.00 | 0.00 | 47 | 1014.7 |
| 20260901213407 | 84 | 8 | 0.0 | 2.0 | 0.00 | 0.00 | 0.00 | 47 | 1014.8 |
| 20260901211902 | 84 | 8 | 0.0 | 1.0 | 0.00 | 0.00 | 0.00 | 47 | 1014.8 |
| 20260901204902 | 84 | 93 | 0.0 | 2.0 | 0.00 | 0.00 | 0.00 | 47 | 1014.7 |
| 20260901203408 | 84 | 120 | 0.0 | 2.0 | 0.00 | 0.00 | 0.00 | 47 | 1014.8 |
| 20260901201901 | 84 | 0 | 0.0 | 2.0 | 0.00 | 0.00 | 0.00 | 47 | 1014.8 |
| 20260901200405 | 85 | 0 | 0.0 | 2.0 | 0.00 | 0.00 | 0.00 | 47 | 1014.8 |
| 20260901193407 | 85 | 75 | 0.0 | 2.0 | 0.00 | 0.00 | 0.00 | 46 | 1014.8 |
| 20260901191909 | 85 | 16 | 0.0 | 2.0 | 0.00 | 0.00 | 0.00 | 45 | 1014.9 |
| 20260901190404 | 85 | 16 | 0.0 | 2.0 | 0.00 | 0.00 | 0.00 | 44 | 1014.8 |
| 20260901184901 | 86 | 17 | 0.0 | 2.0 | 0.00 | 0.00 | 0.00 | 43 | 1014.6 |
| 20260901183405 | 86 | 0 | 1.0 | 2.0 | 0.00 | 0.00 | 0.00 | 43 | 1014.6 |